FW4151 Weather Reports


time (UTC)temp
F
wind
direction
speed
knots
gust
knots
rain 1hr
in
rain 24hr
in
rain mn
in
humidity
%
barometer
mb
20260502200054 45 0.0 0.0 0.00 0.16 0.01 47 1012.1
20260502194555 45 0.0 0.0 0.00 0.16 0.01 47 1012.4
20260502193053 45 0.0 0.0 0.00 0.16 0.01 51 1012.5
20260502191552 45 0.0 0.0 0.00 0.16 0.01 46 1012.7
20260502190053 45 0.0 0.0 0.00 0.16 0.01 51 1012.8
20260502184553 45 0.0 0.0 0.00 0.16 0.01 51 1012.8
20260502183055 45 0.0 0.0 0.00 0.16 0.01 52 1012.8
20260502181552 45 0.0 0.0 0.00 0.16 0.01 48 1012.8
20260502163050 46 0.0 0.0 0.00 0.16 0.01 49 1012.7
20260502161546 45 0.0 0.0 0.00 0.16 0.01 51 1012.8
20260502151539 43 0.0 0.0 0.00 0.16 0.01 62 1013.0
20260502123021 38 0.0 0.0 0.00 0.16 0.01 86 1012.9
20260502121518 38 0.0 0.0 0.00 0.16 0.01 85 1012.9
20260502114515 38 0.0 0.0 0.00 0.16 0.01 88 1012.9
20260502113017 38 0.0 0.0 0.00 0.16 0.01 92 1012.9
20260502111511 37 0.0 0.0 0.00 0.16 0.01 92 1012.8
20260502110006 0 0.0 0.0 0.00 0.16 0.01 1012.4
20260502104508 0 0.0 0.0 0.00 0.16 0.01 1012.5
20260502103113 0 0.0 0.0 0.00 0.16 0.01 1012.5
20260502101555 0 0.0 0.0 0.00 0.16 0.01 1012.5
20260502100109 0 0.0 0.0 0.00 0.16 0.01 1012.3
20260502070022 38 0.0 0.0 0.00 0.15 0.00 91 1011.7
20260502064518 38 0.0 0.0 0.00 0.15 0.00 90 1011.7
20260502063017 38 0.0 0.0 0.00 0.15 0.00 91 1011.5
20260502061515 39 0.0 0.0 0.00 0.15 0.00 92 1011.7
20260502060013 40 0.0 0.0 0.00 0.15 0.00 92 1011.5
20260502054517 40 0.0 0.0 0.00 0.15 0.00 93 1011.4
20260502053011 40 0.0 0.0 0.00 0.15 0.00 92 1011.4
20260502051522 40 0.0 0.0 0.00 0.15 0.00 92 1011.2
20260502050007 40 0.0 0.0 0.00 0.15 0.00 91 1011.3
20260502044505 40 0.0 0.0 0.00 0.15 0.00 91 1011.5
20260502043004 41 0.0 0.0 0.00 0.15 0.00 91 1011.7
20260502041501 41 0.0 0.0 0.00 0.15 0.00 92 1011.6
20260502040058 42 0.0 0.0 0.01 0.15 0.00 93 1011.4
20260502034558 42 0.0 0.0 0.01 0.15 0.15 93 1011.2
20260502033058 42 0.0 0.0 0.01 0.15 0.15 93 1011.1
20260502031611 42 0.0 0.0 0.01 0.15 0.15 92 1011.3
20260502030056 42 0.0 0.0 0.01 0.14 0.14 92 1011.4
20260502024558 42 0.0 0.0 0.02 0.14 0.14 92 1011.4
20260502023055 42 0.0 0.0 0.03 0.14 0.14 92 1011.4
20260502021556 42 0.0 0.0 0.03 0.14 0.14 92 1011.6
20260502020106 42 0.0 0.0 0.02 0.13 0.13 91 1011.6
20260502014553 42 0.0 0.0 0.02 0.12 0.12 91 1011.5
20260502013056 42 0.0 0.0 0.02 0.11 0.11 90 1011.4
20260502011553 42 0.0 0.0 0.02 0.11 0.11 89 1011.4
20260502010056 42 0.0 0.0 0.03 0.11 0.11 89 1011.5
20260502004552 43 0.0 0.0 0.04 0.10 0.10 89 1011.5
20260502003052 43 0.0 0.0 0.05 0.09 0.09 88 1011.4
20260502001551 43 0.0 0.0 0.07 0.09 0.09 87 1011.3
20260502000050 44 0.0 0.0 0.08 0.08 0.08 86 1011.2
20260501234555 44 0.0 0.0 0.06 0.06 0.06 84 1011.3
20260501233052 45 0.0 0.0 0.04 0.04 0.04 81 1011.1
20260501231557 46 0.0 0.0 0.02 0.02 0.02 78 1011.2
20260501230048 47 0.0 0.0 0.00 0.00 0.00 75 1011.1
20260501224547 47 0.0 0.0 0.00 0.00 0.00 71 1010.9
20260501223046 48 0.0 0.0 0.00 0.00 0.00 68 1010.8
20260501221546 49 0.0 0.0 0.00 0.00 0.00 62 1010.8
20260501220045 49 0.0 0.0 0.00 0.00 0.00 58 1010.7
20260501214556 49 0.0 0.0 0.00 0.00 0.00 56 1010.7
20260501213050 49 0.0 0.0 0.00 0.00 0.00 59 1010.7
20260501211544 49 0.0 0.0 0.00 0.00 0.00 56 1010.7
20260501210043 49 0.0 0.0 0.00 0.00 0.00 59 1010.7
20260501204543 50 0.0 0.0 0.00 0.00 0.00 57 1010.8
20260501203042 50 0.0 0.0 0.00 0.00 0.00 56 1010.7
20260501201547 51 0.0 0.0 0.00 0.00 0.00 55 1010.6